Flag for Honduras Weather past 2 weeks in Choloma, Honduras

Now
81 °F

Passing clouds.


Feels Like: 87 °F
Forecast: 75 / 82 °F
Wind: No wind

Location: La Mesa San Pedro Sula

Current Time: Sep 22, 2014 at 9:23:50 PM

Latest Report: Sep 22, 2014 at 9:00 PM


Visibility: N/A

Pressure: 29.89 "Hg

Humidity: 89%

Dew point: 77 °F

Location of CholomaLocation

Historic Weather in Choloma — Graph

°F

Choloma temperature yesterday

Maximum temperature yesterday: 95 °F (at 1:00 PM)
Minimum temperature yesterday: 72 °F (at 5:00 PM)
Average temperature yesterday: 83 °F

Past Weeks' High & Low Weather Summary

 TemperatureHumidityPressure
High95 °F (Sep 19, 2:00 PM)100% (Sep 11, 11:00 PM)30.01 "Hg (Sep 11, 11:00 PM)
Low72 °F (Sep 21, 5:00 PM)44% (Sep 20, 1:00 PM)29.74 "Hg (Sep 11, 3:00 PM)
Average82 °F82%29.88 "Hg
* Reported Sep 11 7:00 AM — Sep 22 8:00 PM, Choloma, Weather by CustomWeather, © 2014

Note: Actual official high and low records may vary slightly from our data, if they occured in-between our weather recording intervals... More about our weather records

Advertising

Choloma weather history for previous 24 hours

 ConditionsComfort  
Time TempWeatherWind HumidityBarometerVisibility
8:00 PM
Sep 22
81 °FPartly cloudy.No wind89%29.89 "HgN/A
7:00 PM81 °FPartly cloudy.3 mph89%29.86 "HgN/A
6:00 PM81 °FPartly cloudy.2 mph84%29.83 "HgN/A
5:00 PM81 °FBroken clouds.7 mph79%29.83 "HgN/A
4:00 PM81 °FBroken clouds.9 mph74%29.80 "HgN/A
3:00 PM86 °FThunderstorms. Broken clouds.20 mph59%29.80 "HgN/A
1:00 PM95 °FPartly sunny.No wind50%29.83 "HgN/A
12:00 PM93 °FBroken clouds.5 mph56%29.86 "HgN/A
11:00 AM91 °FPartly sunny.2 mph59%29.89 "HgN/A
10:00 AM90 °FBroken clouds.No wind63%29.92 "HgN/A
9:00 AM86 °FBroken clouds.5 mph70%29.92 "HgN/A
8:00 AM84 °FPartly sunny.No wind79%29.95 "HgN/A
7:00 AM79 °FPartly sunny.2 mph94%29.92 "HgN/A
6:00 AM77 °FPartly sunny.No wind100%29.92 "HgN/A
5:00 AM77 °FPassing clouds.No wind100%29.89 "HgN/A
4:00 AM77 °FPassing clouds.6 mph94%29.89 "HgN/A
3:00 AM79 °FPassing clouds.6 mph94%29.89 "HgN/A
2:00 AM79 °FPartly cloudy.6 mph100%29.92 "HgN/A
1:00 AM79 °FPartly cloudy.6 mph100%29.92 "HgN/A
12:00 AM81 °FPassing clouds.6 mph94%29.92 "HgN/A
11:00 PM
Sep 21
81 °FPassing clouds.5 mph89%29.92 "HgN/A
10:00 PM81 °FPassing clouds.3 mph89%29.92 "HgN/A
9:00 PM82 °FPassing clouds.7 mph84%29.95 "HgN/A
Weather by CustomWeather, © 2014

See weather overviewHow to use our weather pages